Location: Recife
(8.0585°S, 34.8848°W)
Time: 22:56:22
(UTC-03:00)

Tiros 1 - Pass Details

Date: 23 April 2026
Orbit: 618 x 649 km, 48.4° (Epoch: 19 May)

Event Time Altitude Azimuth Distance (km) Brightness Sun altitude
Exits shadow 03:19:47 37° 98° (E) 970 8.4 -30.5°
Drops below altitude 10° 03:23:07 10° 59° (ENE) 1,975 10.4 -29.6°
Sets 03:25:30 0° 52° (NE) 2,874 11.4 -29.1°
